Location: Dos Palmas
(32.4468°N, 116.8732°W)
Time: 13:12:50
(UTC+00:00)

USA 229 - Pass Details

Date: 20 June 2021
Orbit: 956 x 1256 km, 63.5° (Epoch: 25 July)

Event Time Altitude Azimuth Distance (km) Brightness Sun altitude
Exits shadow 07:32:09 48° 49° (NE) 1,275 4.2 -34.0°
Drops below altitude 10° 07:36:53 10° 34° (NE) 2,826 6.5 -34.0°
Sets 07:39:35 0° 33° (NNE) 3,822 7.3 -34.1°
